Regional Weather Roundup
Issued by NWS

Home | Current Version | Previous Version | Graphics & Text | Print | Product List | Glossary On
Versions: 1 2 3 4 5 6 7 8 9 10 11 12 13 14 15 16 17 18 19 20 21 22 23 24 25 26 27 28 29 30 31 32 33 34 35 36 37 38 39 40 41 42 43 44 45 46 47 48 49
000
ASUS45 KCYS 290810
RWRWY

WYOMING REGIONAL WEATHER ROUNDUP
NATIONAL WEATHER SERVICE CHEYENNE WY
100 AM MST THU JAN 29 2015

NOTE:  "FAIR" INDICATES FEW OR NO CLOUDS BELOW 12,000 FEET
WITH NO SIGNIFICANT WEATHER AND/OR OBSTRUCTIONS TO VISIBILITY.

WYZ001-290900-
YELLOWSTONE NATIONAL PARK

CITY           SKY/WX    TMP DP  RH WIND       PRES   REMARKS
LK YELLOWSTONE   N/A     22  20  92 CALM      30.40F
W YELLOWSTONE  NOT AVBL

$$
WYZ002>013-054>058-071-098>099-290900-
NORTHERN WYOMING

CITY           SKY/WX    TMP DP  RH WIND       PRES   REMARKS
JACKSON        FAIR      23  23 100 NE5       30.40S WCI  17
CODY           CLOUDY    34  28  80 S3        30.39S
GREYBULL       FOG       31  31 100 SE6       30.40S VSB 1/4 WCI  25
WORLAND        CLOUDY    34  28  79 N3        30.40R
SHERIDAN       FAIR      27  23  85 NW3       30.42S
BUFFALO        FAIR      30  28  92 NW8       30.40R WCI  22
GILLETTE       FAIR      27  21  78 NW6       30.39R WCI  20
HULETT           N/A    N/A N/A N/A MISG        N/A
NEWCASTLE      FAIR      28  25  86 NW14      30.37S WCI  17

$$
WYZ014>020-022>026-101>103-290900-
CENTRAL WYOMING

CITY           SKY/WX    TMP DP  RH WIND       PRES   REMARKS
BIG PINEY      FAIR      21  18  88 NE8       30.38R WCI  11
PINEDALE       CLOUDY    19  18  93 NW6       30.38R WCI  11
DUBOIS         FAIR      25  19  80 CALM      30.38R
LANDER         CLOUDY    37  29  72 SW3       30.37S
RIVERTON       CLOUDY    36  29  75 NW3       30.39R
CASPER         CLOUDY    33  29  85 NE7       30.40R WCI  27
DOUGLAS        CLOUDY    33  24  69 NW5       30.41R WCI  29

$$
WYZ021-027>030-104>119-290900-
SOUTHERN WYOMING

CITY           SKY/WX    TMP DP  RH WIND       PRES   REMARKS
EVANSTON       CLOUDY    31  29  92 N9        30.37S FOG     WCI  23
KEMMERER       FAIR      27  25  93 NW8       30.37S WCI  18
FORT BRIDGER   FAIR      31  31  99 W7        30.40S WCI  24
ROCK SPRINGS   FAIR      30  27  88 W8        30.36S WCI  22
DIXON          CLOUDY    34  32  92 CALM      30.38R
RAWLINS        CLOUDY    33  28  81 E10       30.37R WCI  25
SARATOGA       CLOUDY    32  32 100 CALM      30.35S
LARAMIE        FLURRIES  28  27  96 W3        30.35R
CHEYENNE       CLOUDY    35  25  66 N13       30.33S WCI  26
TORRINGTON     FAIR      37  26  64 NW14      30.36R WCI  28
PINE BLUFFS    CLOUDY    34  28  80 NW12      30.34R WCI  25

$$


USA.gov is the U.S. government's official web portal to all federal, state and local government web resources and services.